| time (UTC) | temp C | wind direction | speed KPH | gust KPH | rain 1hr cm | rain 24hr cm | rain mn cm | humidity % | barometer mb |
| 20260502232524 | 10 | 0.0 | 0.0 | 0.00 | 0.00 | 0.00 | 78 | 1009.8 | |
| 20260502231527 | 10 | 0.0 | 0.0 | 0.00 | 0.00 | 0.00 | 78 | 1009.7 | |
| 20260502230530 | 10 | 0.0 | 0.0 | 0.00 | 0.00 | 0.00 | 78 | 1009.7 | |
| 20260502225515 | 10 | 0.0 | 0.0 | 0.00 | 0.00 | 0.00 | 78 | 1009.8 | |
| 20260502224559 | 10 | 0.0 | 0.0 | 0.00 | 0.00 | 0.00 | 78 | 1009.6 | |
| 20260502223522 | 10 | 0.0 | 0.0 | 0.00 | 0.00 | 0.00 | 77 | 1009.7 | |
| 20260502222525 | 10 | 0.0 | 0.0 | 0.00 | 0.00 | 0.00 | 77 | 1009.9 | |
| 20260502221528 | 10 | 0.0 | 0.0 | 0.00 | 0.00 | 0.00 | 77 | 1009.8 | |
| 20260502220552 | 10 | 0.0 | 0.0 | 0.00 | 0.00 | 0.00 | 76 | 1009.8 | |
| 20260502215517 | 10 | 0.0 | 0.0 | 0.00 | 0.00 | 0.00 | 75 | 1010.0 | |
| 20260502214521 | 10 | 0.0 | 0.0 | 0.00 | 0.00 | 0.00 | 72 | 1009.7 | |
| 20260502213544 | 11 | 0.0 | 0.0 | 0.00 | 0.00 | 0.00 | 71 | 1009.6 | |
| 20260502212527 | 11 | 0.0 | 0.0 | 0.00 | 0.00 | 0.00 | 70 | 1009.6 | |
| 20260502211525 | 11 | 0.0 | 0.0 | 0.00 | 0.00 | 0.00 | 69 | 1009.5 | |
| 20260502210516 | 11 | 0.0 | 0.0 | 0.00 | 0.00 | 0.00 | 69 | 1009.6 | |
| 20260502205539 | 11 | 0.0 | 0.0 | 0.00 | 0.00 | 0.00 | 68 | 1009.8 | |
| 20260502204536 | 11 | 0.0 | 0.0 | 0.00 | 0.00 | 0.00 | 67 | 1009.7 | |
| 20260502203526 | 11 | 0.0 | 0.0 | 0.00 | 0.00 | 0.00 | 67 | 1009.6 | |
| 20260502202529 | 11 | 0.0 | 3.2 | 0.00 | 0.00 | 0.00 | 66 | 1009.7 | |
| 20260502201532 | 11 | 0 | 0.0 | 1.6 | 0.00 | 0.00 | 0.00 | 66 | 1009.7 |
| 20260502200518 | 11 | 287 | 1.6 | 6.4 | 0.00 | 0.00 | 0.00 | 65 | 1009.8 |
| 20260502195541 | 12 | 225 | 1.6 | 6.4 | 0.00 | 0.00 | 0.00 | 62 | 1009.8 |
| 20260502194524 | 13 | 309 | 1.6 | 8.0 | 0.00 | 0.00 | 0.00 | 54 | 1009.7 |
| 20260502193527 | 13 | 275 | 1.6 | 9.7 | 0.00 | 0.00 | 0.00 | 51 | 1009.6 |
| 20260502192531 | 13 | 176 | 1.6 | 8.0 | 0.00 | 0.00 | 0.00 | 52 | 1009.6 |
| 20260502191516 | 13 | 270 | 1.6 | 12.9 | 0.00 | 0.00 | 0.00 | 53 | 1009.5 |
| 20260502190519 | 14 | 296 | 1.6 | 6.4 | 0.00 | 0.00 | 0.00 | 52 | 1009.5 |
| 20260502185523 | 15 | 186 | 1.6 | 6.4 | 0.00 | 0.00 | 0.00 | 53 | 1009.8 |
| 20260502184546 | 14 | 211 | 1.6 | 8.0 | 0.00 | 0.00 | 0.00 | 54 | 1009.9 |
| 20260502183529 | 14 | 167 | 3.2 | 11.3 | 0.00 | 0.00 | 0.00 | 55 | 1010.0 |
| 20260502182553 | 14 | 192 | 4.8 | 12.9 | 0.00 | 0.00 | 0.00 | 54 | 1010.0 |
| 20260502181518 | 14 | 161 | 1.6 | 6.4 | 0.00 | 0.00 | 0.00 | 54 | 1010.1 |
| 20260502180521 | 13 | 129 | 1.6 | 8.0 | 0.00 | 0.00 | 0.00 | 56 | 1010.2 |
| 20260502170517 | 13 | 201 | 1.6 | 4.8 | 0.00 | 0.00 | 0.00 | 57 | 1010.7 |
| 20260502163515 | 12 | 0.0 | 1.6 | 0.00 | 0.00 | 0.00 | 66 | 1011.2 | |
| 20260502162518 | 12 | 0.0 | 0.0 | 0.00 | 0.00 | 0.00 | 67 | 1011.2 | |
| 20260502161521 | 12 | 0.0 | 1.6 | 0.00 | 0.00 | 0.00 | 63 | 1011.2 | |
| 20260502160525 | 12 | 189 | 1.6 | 4.8 | 0.00 | 0.00 | 0.00 | 62 | 1011.1 |
| 20260502151523 | 11 | 0.0 | 0.0 | 0.00 | 0.00 | 0.00 | 75 | 1011.4 | |
| 20260502150526 | 10 | 0.0 | 0.0 | 0.00 | 0.00 | 0.00 | 76 | 1011.4 | |
| 20260502130530 | 6 | 0.0 | 0.0 | 0.00 | 0.00 | 0.00 | 77 | 1012.2 | |
| 20260502123521 | 7 | 0.0 | 0.0 | 0.00 | 0.00 | 0.00 | 77 | 1012.1 | |
| 20260502122524 | 6 | 0.0 | 0.0 | 0.00 | 0.00 | 0.00 | 76 | 1012.1 | |
| 20260502121528 | 6 | 0.0 | 0.0 | 0.00 | 0.00 | 0.00 | 76 | 1012.3 | |
| 20260502120531 | 6 | 0.0 | 0.0 | 0.00 | 0.00 | 0.00 | 76 | 1012.5 | |
| 20260502115516 | 6 | 0.0 | 0.0 | 0.00 | 0.00 | 0.00 | 75 | 1012.4 | |
| 20260502114519 | 7 | 0.0 | 0.0 | 0.00 | 0.00 | 0.00 | 75 | 1011.6 | |
| 20260502113523 | 7 | 0.0 | 0.0 | 0.00 | 0.00 | 0.00 | 74 | 1011.3 | |
| 20260502112526 | 7 | 0.0 | 0.0 | 0.00 | 0.00 | 0.00 | 75 | 1011.3 | |
| 20260502111530 | 7 | 0.0 | 0.0 | 0.00 | 0.00 | 0.00 | 75 | 1011.2 | |
| 20260502110515 | 6 | 0.0 | 0.0 | 0.00 | 0.00 | 0.00 | 75 | 1011.1 | |
| 20260502105518 | 6 | 0.0 | 0.0 | 0.00 | 0.00 | 0.00 | 75 | 1011.1 | |
| 20260502104521 | 6 | 0.0 | 0.0 | 0.00 | 0.00 | 0.00 | 75 | 1011.1 | |
| 20260502103524 | 6 | 0.0 | 0.0 | 0.00 | 0.00 | 0.00 | 75 | 1011.1 | |
| 20260502102528 | 6 | 0.0 | 0.0 | 0.00 | 0.00 | 0.00 | 73 | 1011.3 | |
| 20260502101525 | 6 | 0.0 | 0.0 | 0.00 | 0.00 | 0.00 | 71 | 1011.1 | |
| 20260502100536 | 6 | 0.0 | 0.0 | 0.00 | 0.00 | 0.00 | 71 | 1010.9 | |
| 20260502090518 | 7 | 0.0 | 0.0 | 0.00 | 0.00 | 0.00 | 63 | 1010.8 | |
| 20260502070522 | 7 | 0.0 | 0.0 | 0.00 | 0.00 | 0.00 | 68 | 1011.0 | |
| 20260502065525 | 6 | 0.0 | 0.0 | 0.00 | 0.00 | 0.00 | 68 | 1011.0 | |
| 20260502064528 | 6 | 0.0 | 0.0 | 0.00 | 0.00 | 0.00 | 69 | 1011.1 | |
| 20260502063526 | 6 | 0.0 | 0.0 | 0.00 | 0.00 | 0.00 | 68 | 1011.2 | |
| 20260502062517 | 6 | 0.0 | 0.0 | 0.00 | 0.00 | 0.00 | 68 | 1011.1 | |
| 20260502061520 | 6 | 0.0 | 0.0 | 0.00 | 0.00 | 0.00 | 68 | 1011.1 | |
| 20260502060517 | 6 | 0.0 | 0.0 | 0.00 | 0.00 | 0.00 | 68 | 1011.0 | |
| 20260502055527 | 6 | 0.0 | 0.0 | 0.00 | 0.00 | 0.00 | 67 | 1011.0 | |
| 20260502054550 | 6 | 0.0 | 0.0 | 0.00 | 0.00 | 0.00 | 66 | 1011.2 | |
| 20260502053515 | 6 | 0.0 | 0.0 | 0.00 | 0.00 | 0.00 | 66 | 1011.3 | |
| 20260502052539 | 6 | 0.0 | 0.0 | 0.00 | 0.00 | 0.00 | 66 | 1011.1 | |
| 20260502051522 | 6 | 0.0 | 0.0 | 0.00 | 0.00 | 0.00 | 67 | 1011.4 | |
| 20260502050525 | 7 | 0.0 | 0.0 | 0.00 | 0.00 | 0.00 | 66 | 1011.6 | |
| 20260502045528 | 7 | 0.0 | 0.0 | 0.00 | 0.00 | 0.00 | 66 | 1011.5 | |
| 20260502044612 | 6 | 0.0 | 0.0 | 0.00 | 0.00 | 0.00 | 66 | 1011.4 | |
| 20260502043537 | 6 | 0.0 | 0.0 | 0.00 | 0.00 | 0.00 | 65 | 1011.4 | |
| 20260502042520 | 6 | 0.0 | 0.0 | 0.00 | 0.00 | 0.00 | 65 | 1011.4 | |
| 20260502041523 | 6 | 0.0 | 0.0 | 0.00 | 0.00 | 0.00 | 65 | 1011.3 | |
| 20260502040527 | 6 | 0.0 | 0.0 | 0.00 | 0.00 | 0.00 | 65 | 1011.3 | |
| 20260502035530 | 6 | 0.0 | 0.0 | 0.00 | 0.00 | 0.00 | 66 | 1011.2 | |
| 20260502034535 | 6 | 0.0 | 0.0 | 0.00 | 0.00 | 0.00 | 63 | 1011.1 | |
| 20260502033519 | 6 | 0.0 | 0.0 | 0.00 | 0.00 | 0.00 | 63 | 1011.0 | |
| 20260502032522 | 6 | 0.0 | 0.0 | 0.00 | 0.00 | 0.00 | 63 | 1011.1 | |
| 20260502031545 | 6 | 0.0 | 0.0 | 0.00 | 0.00 | 0.00 | 64 | 1011.1 | |
| 20260502030529 | 6 | 0.0 | 0.0 | 0.00 | 0.00 | 0.00 | 63 | 1011.2 | |
| 20260502025546 | 6 | 0.0 | 0.0 | 0.00 | 0.00 | 0.00 | 63 | 1011.1 | |
| 20260502024517 | 6 | 0.0 | 0.0 | 0.00 | 0.00 | 0.00 | 62 | 1011.1 | |
| 20260502023520 | 6 | 0.0 | 0.0 | 0.00 | 0.00 | 0.00 | 61 | 1011.0 | |
| 20260502022518 | 6 | 0.0 | 0.0 | 0.00 | 0.00 | 0.00 | 60 | 1011.0 | |
| 20260502021515 | 6 | 0.0 | 0.0 | 0.00 | 0.00 | 0.00 | 58 | 1011.0 | |
| 20260502020611 | 7 | 0.0 | 0.0 | 0.00 | 0.00 | 0.00 | 58 | 1011.0 | |
| 20260502015515 | 7 | 0.0 | 0.0 | 0.00 | 0.00 | 0.00 | 57 | 1011.0 | |
| 20260502014519 | 7 | 0.0 | 0.0 | 0.00 | 0.00 | 0.00 | 57 | 1011.0 | |
| 20260502013522 | 8 | 0.0 | 0.0 | 0.00 | 0.00 | 0.00 | 55 | 1010.8 | |
| 20260502012525 | 8 | 0.0 | 0.0 | 0.00 | 0.00 | 0.00 | 55 | 1010.8 | |
| 20260502011529 | 8 | 0.0 | 0.0 | 0.00 | 0.00 | 0.00 | 53 | 1010.8 | |
| 20260502010532 | 8 | 0.0 | 0.0 | 0.00 | 0.00 | 0.00 | 52 | 1010.8 | |
| 20260502005537 | 9 | 0.0 | 0.0 | 0.00 | 0.00 | 0.00 | 50 | 1010.7 | |
| 20260502004521 | 10 | 0.0 | 0.0 | 0.00 | 0.00 | 0.00 | 47 | 1010.4 | |
| 20260502003524 | 10 | 0.0 | 0.0 | 0.00 | 0.00 | 0.00 | 46 | 1010.3 | |
| 20260502002527 | 11 | 0.0 | 0.0 | 0.00 | 0.00 | 0.00 | 42 | 1010.1 | |
| 20260502001530 | 11 | 0.0 | 0.0 | 0.00 | 0.00 | 0.00 | 40 | 1009.9 | |
| 20260502000516 | 12 | 0.0 | 0.0 | 0.00 | 0.00 | 0.00 | 38 | 1009.8 | |
| 20260501235519 | 13 | 0.0 | 0.0 | 0.00 | 0.00 | 0.00 | 37 | 1009.7 | |
| 20260501234522 | 13 | 0.0 | 0.0 | 0.00 | 0.00 | 0.00 | 35 | 1009.4 | |
| 20260501233525 | 14 | 0.0 | 0.0 | 0.00 | 0.00 | 0.00 | 33 | 1009.3 |